EJA823 KTEB-KGPT

Flight info

Callsign EJA823
Flight time 2h 22m
Altitude 43000
Route BIGGY Q75 GSO BURGG Q22 CATLN SJI
Aircraft C700/M-SBDGHM1RWXY/LB2

Departure

Time 2026-04-21 22:50
Airport Teterboro Airport (KTEB)

Arrival

Time 2026-04-22 01:12
Airport Gulfport Biloxi International Airport (KGPT)
Time Latitude Longitude Altitude Speed Heading
2026-04-21 22:38 40.84164 -74.06582 7 ft 0 kts 31°
2026-04-21 22:44 40.84173 -74.06528 7 ft 11 kts 70°
2026-04-21 22:44 40.84243 -74.06458 7 ft 14 kts 49°
2026-04-21 22:45 40.84247 -74.06321 7 ft 17 kts 92°
2026-04-21 22:45 40.84243 -74.06193 10 ft 12 kts 87°
2026-04-21 22:45 40.84325 -74.06151 10 ft 17 kts
2026-04-21 22:45 40.84454 -74.06141 10 ft 20 kts
2026-04-21 22:46 40.84603 -74.06130 10 ft 23 kts
2026-04-21 22:46 40.84776 -74.06117 9 ft 26 kts
2026-04-21 22:46 40.84960 -74.06104 9 ft 23 kts
2026-04-21 22:46 40.85119 -74.06091 9 ft 19 kts
2026-04-21 22:47 40.85204 -74.06035 9 ft 15 kts 47°
2026-04-21 22:47 40.85280 -74.05924 9 ft 18 kts 48°
2026-04-21 22:47 40.85370 -74.05790 9 ft 21 kts 49°
2026-04-21 22:47 40.85475 -74.05636 9 ft 24 kts 48°
2026-04-21 22:48 40.85592 -74.05461 9 ft 26 kts 49°
2026-04-21 22:48 40.85649 -74.05378 9 ft 10 kts 47°
2026-04-21 22:48 40.85702 -74.05337 9 ft 8 kts 333°
2026-04-21 22:48 40.85749 -74.05397 9 ft 11 kts 316°
2026-04-21 22:49 40.85746 -74.05454 9 ft 8 kts 227°
2026-04-21 22:49 40.85689 -74.05541 9 ft 19 kts 229°
2026-04-21 22:49 40.85439 -74.05907 10 ft 96 kts 227°
2026-04-21 22:49 40.84852 -74.06813 189 ft 156 kts 227°
2026-04-21 22:50 40.84035 -74.08006 835 ft 192 kts 222°
2026-04-21 22:50 40.83110 -74.09366 1565 ft 198 kts 231°
2026-04-21 22:50 40.82484 -74.11048 1481 ft 207 kts 250°
2026-04-21 22:50 40.82041 -74.12814 1481 ft 199 kts 247°
2026-04-21 22:51 40.81573 -74.14504 1470 ft 196 kts 248°
2026-04-21 22:51 40.81348 -74.16355 1477 ft 217 kts 268°
2026-04-21 22:51 40.81411 -74.18462 1485 ft 243 kts 268°
2026-04-21 22:51 40.81154 -74.20660 1463 ft 244 kts 243°
2026-04-21 22:52 40.79994 -74.22307 2268 ft 246 kts 212°
2026-04-21 22:52 40.78532 -74.23388 4086 ft 243 kts 210°
2026-04-21 22:52 40.77020 -74.24384 5796 ft 249 kts 210°
2026-04-21 22:52 40.75383 -74.25397 7081 ft 268 kts 210°
2026-04-21 22:53 40.73646 -74.26379 8610 ft 276 kts 210°
2026-04-21 22:53 40.71821 -74.27331 10177 ft 288 kts 210°
2026-04-21 22:53 40.69828 -74.28324 10983 ft 329 kts 209°
2026-04-21 22:53 40.67673 -74.29617 11003 ft 350 kts 221°
2026-04-21 22:54 40.65938 -74.31889 11011 ft 353 kts 240°
2026-04-21 22:54 40.64585 -74.34579 11010 ft 353 kts 245°
2026-04-21 22:54 40.63348 -74.37390 10996 ft 356 kts 247°
2026-04-21 22:54 40.62160 -74.40241 10997 ft 355 kts 248°
2026-04-21 22:55 40.60995 -74.43094 10997 ft 353 kts 248°
2026-04-21 22:55 40.59836 -74.45945 10957 ft 353 kts 248°
2026-04-21 22:55 40.58684 -74.48791 10950 ft 352 kts 248°
2026-04-21 22:55 40.57536 -74.51635 10953 ft 352 kts 248°
2026-04-21 22:56 40.56395 -74.54485 10950 ft 352 kts 249°
2026-04-21 22:56 40.55468 -74.57381 12180 ft 333 kts 256°
2026-04-21 22:56 40.54618 -74.60299 13527 ft 357 kts 254°
2026-04-21 22:56 40.53600 -74.63276 14100 ft 356 kts 251°
2026-04-21 22:57 40.52518 -74.66231 14562 ft 362 kts 251°
2026-04-21 22:57 40.51490 -74.69253 15045 ft 362 kts 253°
2026-04-21 22:57 40.50493 -74.72295 15532 ft 364 kts 253°
2026-04-21 22:57 40.49459 -74.75351 16781 ft 366 kts 253°
2026-04-21 22:58 40.48402 -74.78426 18237 ft 374 kts 253°
2026-04-21 22:58 40.47330 -74.81591 19346 ft 382 kts 253°
2026-04-21 22:58 40.46241 -74.84800 20397 ft 388 kts 253°
2026-04-21 22:58 40.45129 -74.88059 21339 ft 394 kts 253°
2026-04-21 22:59 40.43998 -74.91365 22298 ft 400 kts 253°
2026-04-21 22:59 40.42821 -74.94703 23233 ft 409 kts 250°
2026-04-21 22:59 40.41301 -74.97925 24119 ft 422 kts 242°
2026-04-21 22:59 40.39393 -75.00942 24883 ft 435 kts 235°
2026-04-21 23:00 40.37305 -75.03843 25652 ft 440 kts 234°
2026-04-21 23:00 40.35197 -75.06796 26333 ft 446 kts 234°
2026-04-21 23:00 40.33076 -75.09791 27118 ft 450 kts 234°
2026-04-21 23:00 40.30929 -75.12809 27831 ft 456 kts 234°
2026-04-21 23:01 40.28745 -75.15855 28547 ft 461 kts 234°
2026-04-21 23:01 40.26570 -75.18892 29239 ft 466 kts 234°
2026-04-21 23:01 40.24342 -75.22010 29929 ft 472 kts 234°
2026-04-21 23:01 40.22087 -75.25163 30564 ft 477 kts 234°
2026-04-21 23:02 40.19805 -75.28340 31143 ft 481 kts 234°
2026-04-21 23:02 40.17504 -75.31543 31667 ft 486 kts 234°
2026-04-21 23:02 40.15180 -75.34777 32196 ft 490 kts 234°
2026-04-21 23:02 40.12838 -75.38034 32705 ft 494 kts 234°
2026-04-21 23:03 40.10478 -75.41311 33134 ft 497 kts 234°
2026-04-21 23:03 40.08113 -75.44588 33249 ft 490 kts 233°
2026-04-21 23:03 40.05809 -75.47760 33237 ft 478 kts 234°
2026-04-21 23:03 40.03506 -75.50966 33244 ft 489 kts 234°
2026-04-21 23:04 39.98823 -75.57443 33219 ft 491 kts 233°
2026-04-21 23:04 39.94129 -75.63904 33421 ft 486 kts 233°
2026-04-21 23:05 39.91875 -75.67017 34937 ft 457 kts 235°
2026-04-21 23:05 39.89889 -75.70148 35925 ft 448 kts 238°
2026-04-21 23:05 39.87932 -75.73327 36310 ft 450 kts 238°
2026-04-21 23:05 39.85962 -75.76480 36939 ft 448 kts 238°
2026-04-21 23:06 39.83989 -75.79607 37473 ft 446 kts 238°
2026-04-21 23:06 39.82031 -75.82727 38002 ft 444 kts 238°
2026-04-21 23:06 39.80085 -75.85844 38457 ft 444 kts 238°
2026-04-21 23:06 39.78134 -75.88958 38897 ft 443 kts 238°
2026-04-21 23:07 39.76182 -75.92058 39236 ft 443 kts 237°
2026-04-21 23:07 39.74230 -75.95158 39541 ft 443 kts 237°
2026-04-21 23:07 39.72281 -75.98257 39838 ft 443 kts 237°
2026-04-21 23:07 39.70331 -76.01355 40130 ft 443 kts 237°
2026-04-21 23:08 39.68376 -76.04453 40414 ft 443 kts 237°
2026-04-21 23:08 39.66429 -76.07535 40689 ft 443 kts 237°
2026-04-21 23:08 39.64470 -76.10635 40969 ft 443 kts 237°
2026-04-21 23:08 39.62543 -76.13682 41219 ft 443 kts 237°
2026-04-21 23:09 39.60592 -76.16761 41523 ft 442 kts 237°
2026-04-21 23:09 39.58632 -76.19835 41792 ft 442 kts 236°
2026-04-21 23:09 39.56643 -76.22877 42054 ft 442 kts 236°
2026-04-21 23:09 39.54650 -76.25910 42306 ft 442 kts 236°
2026-04-21 23:10 39.52672 -76.28954 42542 ft 442 kts 236°
2026-04-21 23:10 39.50701 -76.32002 42790 ft 441 kts 236°
2026-04-21 23:10 39.48721 -76.35040 43022 ft 442 kts 236°
2026-04-21 23:10 39.46732 -76.38072 43242 ft 442 kts 235°
2026-04-21 23:11 39.42375 -76.43847 43274 ft 453 kts 231°
2026-04-21 23:11 39.37911 -76.49713 43278 ft 462 kts 231°
2026-04-21 23:12 39.33351 -76.55657 43283 ft 468 kts 231°
2026-04-21 23:12 39.28757 -76.61649 43249 ft 469 kts 231°
2026-04-21 23:13 39.24170 -76.67613 43234 ft 467 kts 231°
2026-04-21 23:13 39.19603 -76.73544 43232 ft 465 kts 231°
2026-04-21 23:14 39.15039 -76.79460 43260 ft 467 kts 231°
2026-04-21 23:14 39.10445 -76.85402 43260 ft 469 kts 231°
2026-04-21 23:15 39.05828 -76.91362 43232 ft 471 kts 231°
2026-04-21 23:15 39.01197 -76.97327 43243 ft 470 kts 231°
2026-04-21 23:16 38.97365 -77.02256 43238 ft 468 kts 231°
2026-04-21 23:16 38.92042 -77.09109 43228 ft 466 kts 231°
2026-04-21 23:17 38.88194 -77.14048 43232 ft 468 kts 231°
2026-04-21 23:17 38.83576 -77.19967 43213 ft 471 kts 230°
2026-04-21 23:18 38.78938 -77.25896 43205 ft 470 kts 230°
2026-04-21 23:18 38.74347 -77.31756 43207 ft 468 kts 230°
2026-04-21 23:19 38.69570 -77.37437 43226 ft 469 kts 227°
2026-04-21 23:19 38.64728 -77.43025 43252 ft 468 kts 227°
2026-04-21 23:20 38.59908 -77.48595 43250 ft 467 kts 227°
2026-04-21 23:20 38.55090 -77.54137 43244 ft 466 kts 227°
2026-04-21 23:21 38.50263 -77.59692 43224 ft 469 kts 227°
2026-04-21 23:21 38.45395 -77.65274 43245 ft 472 kts 227°
2026-04-21 23:22 38.40511 -77.70867 43240 ft 471 kts 227°
2026-04-21 23:22 38.35636 -77.76438 43238 ft 470 kts 227°
2026-04-21 23:23 38.30772 -77.81987 43222 ft 469 kts 227°
2026-04-21 23:23 38.25914 -77.87518 43205 ft 468 kts 227°
2026-04-21 23:24 38.21071 -77.93024 43215 ft 466 kts 227°
2026-04-21 23:24 38.16237 -77.98508 43215 ft 467 kts 227°
2026-04-21 23:25 38.11349 -78.04045 43210 ft 473 kts 227°
2026-04-21 23:25 38.06449 -78.09577 43208 ft 470 kts 227°
2026-04-21 23:26 38.01582 -78.15058 43204 ft 468 kts 226°
2026-04-21 23:26 37.96359 -78.20089 43255 ft 473 kts 223°
2026-04-21 23:27 37.91138 -78.25104 43240 ft 476 kts 223°
2026-04-21 23:27 37.85842 -78.30137 43240 ft 475 kts 223°
2026-04-21 23:28 37.80578 -78.35156 43230 ft 472 kts 223°
2026-04-21 23:28 37.75337 -78.40131 43236 ft 470 kts 223°
2026-04-21 23:29 37.70097 -78.45104 43240 ft 473 kts 223°
2026-04-21 23:29 37.64816 -78.50103 43242 ft 476 kts 222°
2026-04-21 23:30 37.59521 -78.55102 43239 ft 473 kts 223°
2026-04-21 23:30 37.54276 -78.60051 43236 ft 469 kts 223°
2026-04-21 23:31 37.49036 -78.64987 43236 ft 472 kts 223°
2026-04-21 23:31 37.43756 -78.69947 43251 ft 474 kts 223°
2026-04-21 23:32 37.38507 -78.74869 43242 ft 467 kts 223°
2026-04-21 23:32 37.33302 -78.79747 43251 ft 468 kts 223°
2026-04-21 23:33 37.28056 -78.84651 43253 ft 472 kts 223°
2026-04-21 23:33 37.22775 -78.89576 43263 ft 472 kts 223°
2026-04-21 23:34 37.17524 -78.94466 43264 ft 468 kts 223°
2026-04-21 23:34 37.12315 -78.99312 43257 ft 466 kts 223°
2026-04-21 23:35 37.07084 -79.04169 43259 ft 470 kts 223°
2026-04-21 23:35 37.01849 -79.09019 43267 ft 471 kts 223°
2026-04-21 23:36 36.96583 -79.13889 43255 ft 469 kts 223°
2026-04-21 23:36 36.91350 -79.18721 43258 ft 465 kts 223°
2026-04-21 23:37 36.86174 -79.23491 43258 ft 459 kts 223°
2026-04-21 23:37 36.81029 -79.28232 43264 ft 462 kts 223°
2026-04-21 23:38 36.75826 -79.33009 43272 ft 466 kts 223°
2026-04-21 23:38 36.70634 -79.37766 43265 ft 460 kts 223°
2026-04-21 23:39 36.65493 -79.42477 43265 ft 459 kts 223°
2026-04-21 23:39 36.60339 -79.47188 43270 ft 461 kts 223°
2026-04-21 23:40 36.55155 -79.51917 43269 ft 463 kts 223°
2026-04-21 23:40 36.49960 -79.56646 43274 ft 460 kts 223°
2026-04-21 23:41 36.44826 -79.61315 43273 ft 456 kts 223°
2026-04-21 23:41 36.39688 -79.65984 43272 ft 459 kts 223°
2026-04-21 23:42 36.34509 -79.70675 43272 ft 462 kts 223°
2026-04-21 23:42 36.29321 -79.75367 43272 ft 460 kts 223°
2026-04-21 23:43 36.24179 -79.80011 43262 ft 455 kts 224°
2026-04-21 23:43 36.19068 -79.84623 43270 ft 456 kts 223°
2026-04-21 23:44 36.13927 -79.89251 43271 ft 458 kts 223°
2026-04-21 23:44 36.08752 -79.93901 43271 ft 460 kts 223°
2026-04-21 23:45 36.02327 -80.02133 43288 ft 437 kts 243°
2026-04-21 23:46 35.99120 -80.08464 43279 ft 435 kts 244°
2026-04-21 23:46 35.95897 -80.14804 43284 ft 437 kts 244°
2026-04-21 23:47 35.92670 -80.21178 43285 ft 439 kts 244°
2026-04-21 23:47 35.89426 -80.27550 43287 ft 438 kts 244°
2026-04-21 23:48 35.86189 -80.33909 43289 ft 437 kts 244°
2026-04-21 23:48 35.82959 -80.40239 43277 ft 436 kts 244°
2026-04-21 23:49 35.79734 -80.46549 43279 ft 435 kts 244°
2026-04-21 23:49 35.76510 -80.52842 43275 ft 434 kts 244°
2026-04-21 23:50 35.73288 -80.59124 43278 ft 434 kts 244°
2026-04-21 23:50 35.70061 -80.65403 43274 ft 434 kts 244°
2026-04-21 23:51 35.66829 -80.71679 43285 ft 434 kts 244°
2026-04-21 23:51 35.63593 -80.77952 43281 ft 434 kts 244°
2026-04-21 23:52 35.60355 -80.84217 43281 ft 434 kts 244°
2026-04-21 23:52 35.57111 -80.90482 43283 ft 435 kts 244°
2026-04-21 23:53 35.53888 -80.96699 43291 ft 434 kts 244°
2026-04-21 23:53 35.50644 -81.02939 43284 ft 433 kts 244°
2026-04-21 23:54 35.47399 -81.09174 43286 ft 433 kts 244°
2026-04-21 23:54 35.44157 -81.15390 43282 ft 432 kts 244°
2026-04-21 23:55 35.40915 -81.21596 43287 ft 433 kts 244°
2026-04-21 23:55 35.37652 -81.27836 43285 ft 437 kts 244°
2026-04-21 23:56 35.34366 -81.34097 43284 ft 435 kts 244°
2026-04-21 23:56 35.31113 -81.40291 43283 ft 430 kts 244°
2026-04-21 23:57 35.27868 -81.46463 43284 ft 433 kts 244°
2026-04-21 23:57 35.24591 -81.52679 43287 ft 436 kts 243°
2026-04-21 23:58 35.21297 -81.58914 43300 ft 435 kts 243°
2026-04-21 23:58 35.18027 -81.65096 43294 ft 431 kts 243°
2026-04-21 23:59 35.14782 -81.71222 43282 ft 429 kts 243°
2026-04-21 23:59 35.11522 -81.77368 43291 ft 433 kts 243°
2026-04-22 00:00 35.08225 -81.83563 43292 ft 435 kts 243°
2026-04-22 00:00 35.04961 -81.89689 43292 ft 432 kts 243°
2026-04-22 00:01 35.01577 -81.95741 43296 ft 432 kts 240°
2026-04-22 00:01 34.98076 -82.01705 43280 ft 433 kts 241°
2026-04-22 00:02 34.94573 -82.07676 43297 ft 434 kts 241°
2026-04-22 00:02 34.91048 -82.13661 43297 ft 435 kts 241°
2026-04-22 00:03 34.87517 -82.19657 43296 ft 436 kts 241°
2026-04-22 00:03 34.83985 -82.25636 43293 ft 434 kts 240°
2026-04-22 00:04 34.80465 -82.31591 43302 ft 432 kts 240°
2026-04-22 00:04 34.76959 -82.37508 43296 ft 431 kts 240°
2026-04-22 00:05 34.73450 -82.43424 43300 ft 432 kts 240°
2026-04-22 00:05 34.70522 -82.48351 43300 ft 433 kts 240°
2026-04-22 00:06 34.66991 -82.54285 43293 ft 434 kts 240°
2026-04-22 00:06 34.63446 -82.60229 43297 ft 434 kts 240°
2026-04-22 00:07 34.59902 -82.66165 43294 ft 434 kts 240°
2026-04-22 00:07 34.56359 -82.72088 43293 ft 433 kts 240°
2026-04-22 00:08 34.52815 -82.78005 43292 ft 433 kts 240°
2026-04-22 00:08 34.49280 -82.83893 43295 ft 431 kts 240°
2026-04-22 00:09 34.45752 -82.89764 43299 ft 430 kts 240°
2026-04-22 00:09 34.42229 -82.95614 43290 ft 429 kts 240°
2026-04-22 00:10 34.38710 -83.01450 43289 ft 428 kts 240°
2026-04-22 00:10 34.35186 -83.07287 43288 ft 431 kts 240°
2026-04-22 00:11 34.31632 -83.13160 43293 ft 434 kts 240°
2026-04-22 00:11 34.28060 -83.19054 43281 ft 433 kts 240°
2026-04-22 00:12 34.24521 -83.24880 43295 ft 427 kts 240°
2026-04-22 00:12 34.20999 -83.30680 43291 ft 430 kts 240°
2026-04-22 00:13 34.17437 -83.36526 43289 ft 434 kts 240°
2026-04-22 00:13 34.13892 -83.42335 43288 ft 431 kts 240°
2026-04-22 00:14 34.10346 -83.48141 43299 ft 428 kts 240°
2026-04-22 00:14 34.06812 -83.53917 43281 ft 429 kts 239°
2026-04-22 00:15 34.03235 -83.59754 43314 ft 431 kts 239°
2026-04-22 00:15 33.99666 -83.65567 43314 ft 431 kts 239°
2026-04-22 00:16 33.96123 -83.71328 43311 ft 430 kts 239°
2026-04-22 00:16 33.92561 -83.77112 43312 ft 429 kts 239°
2026-04-22 00:17 33.88985 -83.82866 43296 ft 430 kts 238°
2026-04-22 00:17 33.85283 -83.88500 43298 ft 429 kts 238°
2026-04-22 00:18 33.81601 -83.94131 43301 ft 428 kts 238°
2026-04-22 00:18 33.77911 -83.99746 43300 ft 428 kts 238°
2026-04-22 00:19 33.74224 -84.05357 43296 ft 428 kts 238°
2026-04-22 00:19 33.70531 -84.10963 43297 ft 428 kts 238°
2026-04-22 00:20 33.66891 -84.16476 43321 ft 421 kts 238°
2026-04-22 00:20 33.65096 -84.19181 43320 ft 410 kts 238°
2026-04-22 00:20 33.63330 -84.21870 43318 ft 412 kts 238°
2026-04-22 00:21 33.59720 -84.27340 43325 ft 422 kts 238°
2026-04-22 00:21 33.56034 -84.32894 43333 ft 429 kts 238°
2026-04-22 00:22 33.52316 -84.38498 43291 ft 429 kts 238°
2026-04-22 00:22 33.48609 -84.44074 43289 ft 426 kts 238°
2026-04-22 00:23 33.44926 -84.49610 43287 ft 424 kts 238°
2026-04-22 00:23 33.41239 -84.55143 43292 ft 426 kts 237°
2026-04-22 00:24 33.37524 -84.60708 43291 ft 429 kts 237°
2026-04-22 00:24 33.33792 -84.66288 43287 ft 429 kts 237°
2026-04-22 00:25 33.30079 -84.71832 43285 ft 425 kts 237°
2026-04-22 00:25 33.26411 -84.77302 43285 ft 424 kts 237°
2026-04-22 00:26 33.22705 -84.82823 43285 ft 428 kts 237°
2026-04-22 00:26 33.18965 -84.88381 43291 ft 430 kts 237°
2026-04-22 00:27 33.15222 -84.93934 43291 ft 428 kts 237°
2026-04-22 00:27 33.11501 -84.99450 43292 ft 425 kts 237°
2026-04-22 00:28 33.07798 -85.04930 43286 ft 424 kts 237°
2026-04-22 00:28 33.04080 -85.10428 43291 ft 428 kts 237°
2026-04-22 00:29 33.00326 -85.15967 43292 ft 431 kts 237°
2026-04-22 00:29 32.96568 -85.21499 43291 ft 428 kts 237°
2026-04-22 00:30 32.92840 -85.26985 43285 ft 425 kts 237°
2026-04-22 00:30 32.89119 -85.32454 43283 ft 427 kts 237°
2026-04-22 00:31 32.85364 -85.37961 43286 ft 431 kts 237°
2026-04-22 00:31 32.81587 -85.43488 43284 ft 429 kts 237°
2026-04-22 00:32 32.77838 -85.48973 43284 ft 427 kts 237°
2026-04-22 00:32 32.74074 -85.54470 43285 ft 430 kts 236°
2026-04-22 00:33 32.70283 -85.59982 43312 ft 431 kts 237°
2026-04-22 00:33 32.66502 -85.65523 43295 ft 431 kts 237°
2026-04-22 00:34 32.62714 -85.71008 43286 ft 428 kts 237°
2026-04-22 00:34 32.58958 -85.76470 43276 ft 426 kts 237°
2026-04-22 00:35 32.55189 -85.81931 43273 ft 429 kts 236°
2026-04-22 00:35 32.51402 -85.87413 43273 ft 431 kts 236°
2026-04-22 00:36 32.47627 -85.92867 43264 ft 430 kts 236°
2026-04-22 00:36 32.43839 -85.98333 43263 ft 429 kts 236°
2026-04-22 00:37 32.40056 -86.03784 43267 ft 428 kts 236°
2026-04-22 00:37 32.36285 -86.09211 43268 ft 427 kts 236°
2026-04-22 00:38 32.32513 -86.14631 43268 ft 427 kts 236°
2026-04-22 00:38 32.28731 -86.20057 43244 ft 428 kts 236°
2026-04-22 00:39 32.24925 -86.25511 43260 ft 432 kts 236°
2026-04-22 00:39 32.21091 -86.30994 43256 ft 432 kts 236°
2026-04-22 00:40 32.17270 -86.36451 43251 ft 429 kts 236°
2026-04-22 00:40 32.13476 -86.41864 43253 ft 427 kts 236°
2026-04-22 00:41 32.09674 -86.47281 43241 ft 430 kts 236°
2026-04-22 00:41 32.05842 -86.52731 43229 ft 433 kts 236°
2026-04-22 00:42 32.01996 -86.58191 43216 ft 431 kts 236°
2026-04-22 00:42 31.98185 -86.63596 43238 ft 427 kts 236°
2026-04-22 00:43 31.94394 -86.68966 43235 ft 427 kts 236°
2026-04-22 00:43 31.90588 -86.74349 43233 ft 429 kts 236°
2026-04-22 00:44 31.86764 -86.79750 43222 ft 430 kts 236°
2026-04-22 00:44 31.82928 -86.85158 43206 ft 431 kts 236°
2026-04-22 00:45 31.79097 -86.90551 43200 ft 429 kts 236°
2026-04-22 00:45 31.75278 -86.95921 43205 ft 427 kts 236°
2026-04-22 00:46 31.71499 -87.01228 43191 ft 426 kts 236°
2026-04-22 00:46 31.67684 -87.06580 43210 ft 428 kts 236°
2026-04-22 00:47 31.63847 -87.11951 43241 ft 431 kts 236°
2026-04-22 00:47 31.59989 -87.17347 43251 ft 432 kts 236°
2026-04-22 00:48 31.56141 -87.22716 43251 ft 428 kts 236°
2026-04-22 00:48 31.52320 -87.28045 43255 ft 426 kts 236°
2026-04-22 00:49 31.48497 -87.33370 43251 ft 428 kts 235°
2026-04-22 00:49 31.44646 -87.38724 43255 ft 432 kts 235°
2026-04-22 00:50 31.40763 -87.44114 43261 ft 432 kts 235°
2026-04-22 00:50 31.37548 -87.48571 43263 ft 430 kts 235°
2026-04-22 00:51 31.33704 -87.53896 43258 ft 427 kts 235°
2026-04-22 00:51 31.29871 -87.59192 43100 ft 418 kts 235°
2026-04-22 00:51 31.27992 -87.61734 42280 ft 412 kts 235°
2026-04-22 00:52 31.26106 -87.64262 41189 ft 413 kts 236°
2026-04-22 00:52 31.24222 -87.66807 40133 ft 414 kts 236°
2026-04-22 00:52 31.22342 -87.69360 39072 ft 415 kts 237°
2026-04-22 00:52 31.20454 -87.71916 37764 ft 415 kts 236°
2026-04-22 00:53 31.18559 -87.74474 36281 ft 419 kts 234°
2026-04-22 00:53 31.16628 -87.77080 34689 ft 427 kts 233°
2026-04-22 00:53 31.14665 -87.79725 32911 ft 435 kts 233°
2026-04-22 00:53 31.12674 -87.82403 31155 ft 439 kts 232°
2026-04-22 00:54 31.10666 -87.85108 29212 ft 445 kts 232°
2026-04-22 00:54 31.08662 -87.87791 28059 ft 430 kts 232°
2026-04-22 00:54 31.06725 -87.90395 26685 ft 421 kts 232°
2026-04-22 00:54 31.04824 -87.92952 25479 ft 414 kts 232°
2026-04-22 00:55 31.02989 -87.95405 25080 ft 394 kts 232°
2026-04-22 00:55 31.01175 -87.97848 24563 ft 405 kts 232°
2026-04-22 00:55 30.97476 -88.02804 23450 ft 401 kts 232°
2026-04-22 00:56 30.95654 -88.05234 22920 ft 396 kts 232°
2026-04-22 00:56 30.93849 -88.07654 22407 ft 395 kts 232°
2026-04-22 00:56 30.92050 -88.10065 21883 ft 393 kts 232°
2026-04-22 00:56 30.90287 -88.12417 21378 ft 389 kts 232°
2026-04-22 00:57 30.88490 -88.14813 20863 ft 386 kts 232°
2026-04-22 00:57 30.86756 -88.17127 20364 ft 383 kts 232°
2026-04-22 00:57 30.85014 -88.19453 19864 ft 380 kts 232°
2026-04-22 00:57 30.83280 -88.21764 19368 ft 378 kts 231°
2026-04-22 00:58 30.81556 -88.24058 18872 ft 376 kts 231°
2026-04-22 00:58 30.79842 -88.26340 18345 ft 373 kts 231°
2026-04-22 00:58 30.78146 -88.28595 17849 ft 369 kts 231°
2026-04-22 00:58 30.76460 -88.30839 17369 ft 368 kts 231°
2026-04-22 00:59 30.74773 -88.33082 16881 ft 369 kts 230°
2026-04-22 00:59 30.73106 -88.35353 16397 ft 370 kts 233°
2026-04-22 00:59 30.71719 -88.37963 16313 ft 388 kts 243°
2026-04-22 00:59 30.70480 -88.40751 16307 ft 388 kts 243°
2026-04-22 01:00 30.69231 -88.43551 16312 ft 392 kts 243°
2026-04-22 01:00 30.67979 -88.46361 16309 ft 392 kts 243°
2026-04-22 01:00 30.66731 -88.49166 16296 ft 389 kts 243°
2026-04-22 01:00 30.65490 -88.51951 16285 ft 388 kts 243°
2026-04-22 01:01 30.64246 -88.54736 16287 ft 388 kts 243°
2026-04-22 01:01 30.63004 -88.57517 16290 ft 388 kts 243°
2026-04-22 01:01 30.61761 -88.60299 16290 ft 388 kts 243°
2026-04-22 01:01 30.60519 -88.63078 16286 ft 388 kts 243°
2026-04-22 01:02 30.59277 -88.65852 16286 ft 387 kts 243°
2026-04-22 01:02 30.58032 -88.68631 16278 ft 388 kts 243°
2026-04-22 01:02 30.56786 -88.71411 16283 ft 390 kts 243°
2026-04-22 01:02 30.55533 -88.74204 16284 ft 390 kts 243°
2026-04-22 01:03 30.54284 -88.76989 16266 ft 388 kts 243°
2026-04-22 01:03 30.53061 -88.79779 16259 ft 385 kts 247°
2026-04-22 01:03 30.52392 -88.82646 16023 ft 359 kts 261°
2026-04-22 01:03 30.52134 -88.85519 15732 ft 361 kts 265°
2026-04-22 01:04 30.52251 -88.88441 15421 ft 365 kts 277°
2026-04-22 01:04 30.52732 -88.91362 14832 ft 370 kts 281°
2026-04-22 01:04 30.53339 -88.94226 14479 ft 353 kts 283°
2026-04-22 01:04 30.53968 -88.96855 14293 ft 325 kts 286°
2026-04-22 01:05 30.54815 -88.99196 13973 ft 309 kts 296°
2026-04-22 01:05 30.55937 -89.01331 13136 ft 310 kts 298°
2026-04-22 01:05 30.56805 -89.03601 12471 ft 305 kts 293°
2026-04-22 01:05 30.57716 -89.05812 11805 ft 303 kts 295°
2026-04-22 01:06 30.58655 -89.07962 11162 ft 301 kts 295°
2026-04-22 01:06 30.59608 -89.10118 10516 ft 300 kts 296°
2026-04-22 01:06 30.60561 -89.12261 9864 ft 298 kts 296°
2026-04-22 01:06 30.61502 -89.14398 9148 ft 297 kts 296°
2026-04-22 01:07 30.62198 -89.16622 8430 ft 293 kts 277°
2026-04-22 01:07 30.62012 -89.18944 7749 ft 288 kts 249°
2026-04-22 01:07 30.60967 -89.20871 7096 ft 281 kts 220°
2026-04-22 01:07 30.59320 -89.21919 6258 ft 266 kts 193°
2026-04-22 01:08 30.57517 -89.21866 5195 ft 258 kts 163°
2026-04-22 01:08 30.55921 -89.21013 4183 ft 250 kts 150°
2026-04-22 01:08 30.54451 -89.20003 3371 ft 242 kts 150°
2026-04-22 01:08 30.52976 -89.19059 2957 ft 237 kts 153°
2026-04-22 01:09 30.51525 -89.18195 2642 ft 231 kts 153°
2026-04-22 01:09 30.50171 -89.17375 2330 ft 210 kts 152°
2026-04-22 01:09 30.48898 -89.16591 2024 ft 203 kts 152°
2026-04-22 01:09 30.47713 -89.15789 1987 ft 195 kts 140°
2026-04-22 01:10 30.46852 -89.14711 1772 ft 175 kts 130°
2026-04-22 01:10 30.46088 -89.13633 1559 ft 175 kts 131°
2026-04-22 01:10 30.45325 -89.12618 1219 ft 157 kts 134°
2026-04-22 01:10 30.44614 -89.11769 908 ft 132 kts 142°
2026-04-22 01:11 30.43976 -89.11101 736 ft 125 kts 140°
2026-04-22 01:11 30.43346 -89.10391 577 ft 122 kts 139°
2026-04-22 01:11 30.42759 -89.09716 404 ft 121 kts 137°
2026-04-22 01:11 30.42168 -89.09062 275 ft 113 kts 140°
2026-04-22 01:12 30.41601 -89.08351 108 ft 125 kts 135°
2026-04-22 01:12 30.41036 -89.07697 30 ft 98 kts 135°
2026-04-22 01:12 30.40687 -89.07295 27 ft 43 kts 135°
2026-04-22 01:12 30.40531 -89.07117 29 ft 29 kts 135°
2026-04-22 01:13 30.40378 -89.06940 29 ft 35 kts 135°
2026-04-22 01:13 30.40207 -89.06742 27 ft 31 kts 135°
2026-04-22 01:13 30.40062 -89.06576 30 ft 29 kts 134°
2026-04-22 01:13 30.39921 -89.06412 27 ft 28 kts 135°
2026-04-22 01:14 30.39786 -89.06256 29 ft 21 kts 140°
2026-04-22 01:14 30.39685 -89.06316 27 ft 22 kts 244°
2026-04-22 01:14 30.39747 -89.06434 25 ft 20 kts 317°
2026-04-22 01:14 30.39858 -89.06561 25 ft 25 kts 315°
2026-04-22 01:15 30.39992 -89.06716 25 ft 29 kts 315°
2026-04-22 01:15 30.40147 -89.06897 26 ft 34 kts 315°
2026-04-22 01:15 30.40309 -89.07085 25 ft 30 kts 316°
2026-04-22 01:15 30.40447 -89.07241 26 ft 18 kts 317°
2026-04-22 01:16 30.40482 -89.07315 25 ft 11 kts 239°
2026-04-22 01:16 30.40418 -89.07391 27 ft 11 kts 223°
2026-04-22 01:16 30.40378 -89.07393 25 ft 6 kts 130°
2026-04-22 01:16 30.40339 -89.07340 26 ft 11 kts 118°
2026-04-22 01:17 30.40376 -89.07343 25 ft 10 kts 271°
2026-04-22 01:17 30.40369 -89.07362 25 ft 0 kts 227°
2026-04-22 01:17 30.40368 -89.07364 26 ft 0 kts 225°
2026-04-22 02:00 30.40381 -89.07379 25 ft 378 kts 225°
2026-04-22 02:00 30.40367 -89.07380 25 ft 0 kts 225°